Changshagaoxin (43669 NORAD) Tracking and Keplerian Element Data

This shows tracking and keplerian element data for the satellite.

Feedback or suggestion? Click here.




ElementValue
Catalog43669
NameChangshagaoxin
Epoch Orbit3121
Epoch Day143.19688732
Epoch Year2019
RAAN167.2423
Inclination97.508
Eccentricity0.0009257
Argument of Perigee273.3315
Mean Anonmoly86.6859
Mean Motion15.16751429
Decay Rate4.41E-06
L11 43669U 18083H 19143.19688732 .00000441 00000-0 25903-4 0 9992
L22 43669 97.5080 167.2423 0009257 273.3315 86.6859 15.16751429 31211

Live tracking and technical data element details for Changshagaoxin (NORAD 43669). Changshagaoxin can be tracked NOW for your location showing map with azimuth and elevation plus other details from your city location.

Track the satellite on the map from your city or location and see movement details for azimuth, elevation, latitude, longitude, range, height, and movement on the map or in text.







IsCatalogInMostPopularTable: catalog: 43669, numindb: 107
Update: records affected: 1



GetName: 43669 Changshagaoxin

Hit Count: updated at: Fri, 24 May 2019 20:47:44 GMT